Theta_e
325 321 324 320 309 308 301 300 304 302 303 307 307 307 307 308 305 304 326 340 343 344 346 347 348 350 350 351 349 348 347 343 342 341 339 339 339 339 339 338 340 341 337 343 342 341 338 337 335
321 318 321 316 305 300 299 302 301 304 308 310 309 310 309 308 318 324 330 338 343 344 346 347 346 349 351 350 350 348 346 342 341 339 338 338 337 337 337 337 338 339 338 342 341 339 336 335 334
317 315 314 310 305 300 300 302 304 306 309 306 308 312 311 310 320 328 334 341 344 344 346 347 346 349 350 350 349 347 346 342 340 338 336 335 335 335 335 336 336 336 337 339 340 336 334 333 333
318 316 311 304 300 301 302 304 305 306 307 306 309 307 315 321 324 327 335 344 344 344 346 344 347 350 350 349 348 347 345 342 339 337 335 333 332 331 331 332 334 335 335 335 335 331 328 329 330
315 314 304 301 300 301 303 304 306 306 306 306 309 306 310 321 325 331 336 343 343 344 346 347 346 348 349 348 346 346 344 341 338 336 334 332 330 328 328 328 329 330 330 330 329 326 323 323 326
310 310 300 298 299 301 303 305 306 307 304 306 307 308 311 323 324 336 339 341 344 344 346 346 340 342 344 345 345 344 344 341 338 337 335 333 331 331 331 328 327 326 326 326 325 323 321 321 323
307 305 300 300 299 299 303 306 305 306 305 306 310 306 312 320 327 338 341 342 344 344 345 345 345 342 337 340 341 342 342 340 339 339 338 335 335 335 333 333 330 328 326 324 322 321 320 320 321
308 307 298 299 298 299 303 304 304 306 305 308 312 305 307 319 329 339 341 342 343 343 344 344 344 344 344 346 334 337 338 338 338 336 333 331 331 331 331 329 331 330 328 325 322 320 319 320 321
303 302 298 298 298 301 302 302 302 304 304 307 309 308 313 324 330 336 337 338 339 340 343 344 344 344 344 345 339 333 333 333 332 331 327 326 331 331 331 327 328 328 327 326 324 321 319 319 319
303 299 298 300 301 301 302 303 303 303 303 304 306 308 309 324 328 331 331 331 334 335 338 343 344 344 344 342 341 342 341 338 335 333 330 330 331 332 329 323 323 325 324 322 321 318 316 318 319
300 298 298 299 300 301 302 301 304 303 302 306 306 309 309 322 326 327 331 330 332 335 335 337 341 343 344 342 343 344 342 339 336 333 332 329 325 326 325 325 323 322 318 320 319 318 317 317 317
298 299 299 300 301 301 301 302 301 303 306 306 309 307 309 318 323 325 328 331 333 333 332 333 338 342 344 343 343 343 339 341 336 335 331 328 325 324 322 323 321 321 320 318 318 316 315 314 313
300 299 300 301 300 301 300 301 302 302 307 306 305 304 308 313 321 325 328 333 333 330 329 329 332 340 342 342 342 340 335 337 338 335 331 328 325 321 320 320 318 311 313 314 316 313 312 310 307
300 300 300 301 301 301 300 301 300 303 304 304 304 305 307 310 318 324 326 329 331 331 328 327 328 336 337 339 341 340 335 335 334 332 331 331 325 321 322 314 313 307 308 309 312 311 309 305 300
300 298 300 301 300 300 301 299 299 305 303 303 304 305 305 307 313 321 325 326 329 329 327 324 327 332 331 331 333 335 333 332 331 330 330 328 323 318 317 310 309 302 303 306 307 308 306 300 296
298 299 295 298 299 299 300 296 302 302 302 303 305 306 305 306 308 315 323 326 327 325 322 322 321 324 325 324 323 321 320 320 321 327 325 323 319 316 309 303 304 301 303 303 303 306 302 298 295
297 293 294 296 299 298 299 298 302 301 301 303 305 306 305 306 306 309 316 322 323 323 320 319 320 321 318 317 315 313 311 310 308 311 317 317 313 309 309 301 298 302 302 302 303 300 299 296 293
293 292 293 294 297 296 297 297 302 303 301 304 306 306 306 306 306 308 309 314 320 320 319 319 318 319 315 311 309 307 305 304 306 304 304 307 307 305 304 297 296 302 300 298 298 296 295 293 292
294 293 293 296 297 296 297 297 299 303 303 302 304 305 306 307 309 308 307 309 312 315 314 315 315 315 314 308 306 306 304 301 301 305 301 301 301 301 300 296 297 302 297 297 295 294 292 290 292
294 293 293 296 296 295 296 295 299 301 302 304 305 306 307 308 306 304 305 306 308 311 312 313 313 312 313 313 310 305 301 298 297 298 302 300 299 297 297 295 295 295 295 294 293 292 291 291 294
293 292 293 292 295 295 293 294 297 300 301 303 304 305 306 307 305 304 303 304 307 308 309 310 312 311 312 313 306 300 294 293 293 293 293 297 295 296 294 294 293 293 295 293 294 293 291 290 292
290 295 294 292 292 289 294 287 296 300 301 301 304 305 305 305 305 304 303 303 305 307 309 309 310 309 310 307 306 303 301 298 299 295 294 292 292 291 291 290 291 291 293 294 293 293 296 294 290
293 295 294 293 292 290 292 289 295 297 297 301 305 305 303 303 302 302 301 303 304 306 306 308 309 307 304 303 303 303 302 301 298 296 293 290 290 289 289 288 288 289 290 291 291 290 292 295 292
294 293 292 291 291 286 292 291 293 297 299 302 303 301 301 301 300 299 299 301 302 305 304 307 307 306 302 301 300 301 302 296 295 294 290 288 287 287 286 286 287 288 286 288 289 289 291 293 292
294 293 287 286 284 285 290 289 294 299 300 301 301 301 302 300 299 298 298 299 301 302 303 304 305 303 304 304 302 301 298 296 295 292 293 290 287 285 285 285 284 286 284 285 287 288 287 289 289
291 294 289 284 284 288 287 286 294 300 302 301 300 300 300 300 298 297 298 299 300 300 301 303 303 302 302 301 300 298 295 294 294 294 293 289 289 288 285 283 283 282 283 283 283 285 285 287 287
292 288 296 290 282 285 291 295 297 299 299 299 299 299 300 298 296 296 296 298 299 299 300 302 302 301 301 299 296 294 293 293 292 289 288 287 286 283 282 282 281 282 284 283 284 283 283 285 285
295 297 288 290 284 283 289 290 292 296 297 298 298 300 298 296 296 296 296 297 299 299 300 301 301 300 300 298 295 293 292 291 290 288 286 284 283 282 281 280 280 280 280 282 283 283 283 283 283
291 290 290 292 290 286 285 290 297 299 298 298 298 298 298 296 296 296 296 297 298 300 300 300 299 299 298 296 295 292 291 289 287 287 285 284 282 281 280 279 279 279 280 281 281 281 282 281 281
294 293 293 288 285 287 286 290 296 297 299 299 298 297 297 297 297 296 296 296 296 297 299 298 298 297 296 295 293 291 290 287 286 285 284 283 282 281 279 279 279 279 279 280 280 279 281 280 279
Wind_Speed
2 3 1 3 4 2 2 3 1 4 4 2 4 3 2 3 2 4 5 7 11 13 12 13 10 12 13 14 12 12 13 14 15 15 16 16 16 16 15 16 12 15 16 15 18 18 18 18 19
3 2 3 1 3 1 4 2 5 4 3 6 5 3 4 1 1 5 10 7 12 13 12 13 11 13 13 13 12 13 14 14 15 15 15 15 16 16 16 15 14 17 14 17 18 18 18 18 18
0 3 3 1 1 1 2 4 5 6 8 2 2 2 0 1 3 10 4 10 13 12 11 12 11 13 13 12 11 13 14 14 15 15 15 16 16 16 16 16 15 17 16 16 17 19 17 17 18
1 3 3 5 2 1 1 4 5 10 4 3 2 3 2 0 7 2 7 12 13 12 12 13 12 13 13 12 12 13 14 14 14 15 15 15 16 16 16 16 16 16 16 17 17 18 18 18 17
1 2 4 3 2 1 3 1 8 11 4 5 4 2 1 3 2 3 10 11 13 13 11 13 11 12 13 13 13 14 15 14 14 15 15 15 16 16 16 16 16 16 16 17 17 19 18 18 17
3 2 5 8 3 2 3 5 8 10 3 5 5 2 2 4 6 8 9 12 13 12 12 12 10 10 11 12 13 13 15 15 15 15 15 15 16 16 16 16 16 16 16 17 18 18 18 18 18
2 3 4 2 2 3 4 8 8 10 6 6 1 4 3 8 8 10 11 12 13 13 12 11 12 12 10 11 12 13 14 14 14 14 14 13 13 13 14 14 15 16 16 17 18 18 18 18 19
2 1 5 4 5 4 7 9 2 9 7 3 3 5 3 9 10 11 11 12 12 12 12 12 12 12 12 12 12 13 12 13 13 13 13 11 11 11 12 11 14 16 16 17 17 18 19 19 19
0 4 6 5 7 3 6 9 3 0 4 4 6 3 4 9 11 13 12 11 12 10 13 12 13 12 12 11 12 13 14 12 12 10 10 15 10 11 10 12 14 17 16 17 18 19 19 20 19
4 4 6 1 3 3 7 7 8 6 9 7 6 8 4 11 13 16 16 15 16 15 12 13 13 12 12 8 11 11 12 11 9 9 9 4 9 8 11 12 15 15 15 17 18 17 13 9 9
3 4 3 3 4 3 4 5 6 8 9 10 14 12 12 15 15 17 17 16 17 15 10 10 12 12 12 10 7 6 7 8 8 11 9 8 7 8 7 7 7 8 7 7 8 8 7 10 8
4 1 2 1 3 4 4 3 5 12 10 3 8 0 14 17 18 19 19 18 17 15 13 9 8 10 13 9 9 8 6 7 8 10 9 7 5 7 6 5 6 6 5 8 7 6 10 12 12
4 3 3 1 2 3 2 6 5 12 13 7 2 6 12 15 18 16 15 15 16 16 13 10 9 10 9 11 9 8 9 7 8 10 10 7 6 6 6 6 5 5 5 6 8 9 9 11 12
2 1 2 3 3 3 4 2 3 5 3 11 10 12 12 15 17 14 15 17 18 15 14 11 10 9 6 5 9 7 8 10 8 7 8 12 7 6 7 5 6 5 5 4 7 10 10 10 11
2 3 4 8 3 4 4 7 13 14 4 9 12 13 12 14 12 19 18 18 16 14 13 12 10 9 8 7 6 6 5 7 7 7 10 9 10 9 10 6 7 6 5 7 7 10 11 11 11
1 2 4 3 4 1 6 13 6 2 6 14 15 14 13 15 17 17 16 16 15 14 15 12 8 9 7 5 4 3 3 3 2 6 7 10 10 11 9 7 8 7 7 5 7 9 11 11 11
1 6 5 4 5 3 7 10 1 1 4 11 11 12 13 15 16 18 17 17 16 15 14 13 12 11 8 6 4 4 4 3 3 3 2 8 9 10 10 7 7 9 9 8 6 6 10 12 11
6 6 4 6 4 4 7 19 14 10 10 15 16 14 15 16 18 16 18 17 15 15 14 13 11 12 10 6 5 3 3 3 3 4 3 4 6 9 10 7 8 9 7 6 5 9 7 9 13
2 3 8 5 2 5 14 18 21 17 16 19 19 21 21 21 12 10 12 15 15 15 15 16 14 13 11 6 4 3 3 2 2 3 6 5 6 6 9 7 9 9 8 9 9 10 13 9 13
7 11 14 11 4 5 12 17 20 21 21 20 20 21 23 18 7 10 14 17 19 18 17 17 16 15 13 9 5 3 4 2 2 4 6 8 7 6 8 10 8 9 7 10 11 11 8 8 11
12 15 10 9 5 6 8 15 12 14 13 20 24 25 21 16 12 12 13 17 17 18 19 17 16 15 13 12 8 6 6 4 3 4 4 6 7 10 8 10 9 8 8 10 13 12 10 10 8
15 11 9 6 3 8 2 11 12 11 17 11 17 14 12 11 10 10 11 14 17 16 13 15 15 14 13 14 11 12 7 6 5 6 5 6 8 9 8 9 10 9 7 10 9 7 7 9 9
3 5 7 3 7 6 10 9 5 4 11 17 18 5 3 1 3 7 9 10 11 13 13 14 15 14 12 12 10 9 8 4 7 6 9 8 7 6 7 7 7 7 6 8 10 9 7 9 7
12 7 5 2 2 11 12 11 12 10 14 13 7 3 5 2 2 1 2 5 9 11 12 14 15 15 12 11 11 10 9 9 8 9 8 5 5 6 6 7 9 9 7 9 7 6 7 8 6
4 9 4 5 6 11 3 10 18 8 7 8 7 5 2 1 1 2 4 6 8 11 12 12 14 14 14 14 12 12 11 11 11 11 9 11 8 5 8 7 7 7 8 9 9 8 5 8 7
12 10 8 7 6 7 3 11 7 13 11 9 7 6 5 6 4 4 4 6 8 9 11 13 14 14 14 13 12 10 10 6 5 10 8 7 8 8 8 6 7 7 7 9 10 8 6 9 8
9 12 6 7 3 5 11 18 10 12 15 8 10 7 7 4 4 4 5 6 7 8 11 13 14 14 13 12 10 10 9 10 10 10 9 7 9 7 7 6 6 7 9 7 11 8 10 10 9
9 10 6 5 6 10 13 11 13 6 14 11 10 7 3 3 4 5 6 8 7 9 11 13 13 14 13 12 11 10 10 10 10 9 9 10 10 11 10 9 8 6 6 9 8 7 10 12 9
7 8 5 3 5 6 14 13 5 11 7 10 8 5 6 7 7 7 7 8 9 10 12 12 13 15 15 15 13 12 11 11 10 10 11 11 11 12 11 11 11 8 8 8 8 8 10 12 12
10 14 18 8 7 5 3 23 4 5 6 9 8 6 7 7 8 8 8 9 9 11 12 13 13 14 13 13 13 13 13 13 12 11 11 11 11 10 10 11 10 10 9 9 10 10 10 11 12
Wind_Direction
336 357 272 236 230 268 72 119 80 164 182 88 105 216 257 352 285 11 125 134 152 149 149 160 143 136 135 127 125 115 103 101 97 94 91 89 88 88 83 80 74 81 76 84 79 78 74 72 70
5 224 217 269 259 257 95 133 193 148 88 128 133 163 206 106 86 109 145 157 158 149 152 152 142 141 137 135 132 122 107 104 100 97 94 93 92 89 85 85 81 83 82 80 83 79 74 73 74
176 324 254 201 259 299 59 182 139 127 135 149 163 274 321 96 137 147 98 157 160 155 153 139 146 142 140 138 131 119 112 111 106 102 99 96 93 90 89 84 84 84 83 81 81 79 77 75 74
250 179 142 251 177 180 310 145 149 149 191 237 274 203 185 348 144 121 144 157 164 156 157 140 148 149 144 141 131 125 118 116 112 107 104 101 99 96 93 91 89 87 86 82 82 80 78 76 74
48 218 202 223 211 216 228 179 175 171 157 168 185 151 178 177 168 162 165 166 165 162 156 156 151 150 148 146 141 133 127 124 119 113 109 106 102 100 98 97 98 95 93 90 89 85 81 78 76
168 278 215 216 196 186 223 177 175 188 169 139 211 196 152 133 182 161 170 176 169 166 161 155 155 151 149 146 146 138 132 129 126 122 117 112 110 107 105 105 103 101 98 97 92 90 86 83 79
226 216 219 194 217 230 188 162 200 190 194 200 130 230 110 187 176 163 170 172 175 170 170 167 168 164 154 148 143 141 138 133 131 126 119 113 111 106 101 98 97 95 95 95 94 94 89 85 81
132 195 170 212 209 224 153 173 238 202 201 96 209 229 183 176 161 165 165 172 178 176 179 174 173 173 171 164 152 146 141 137 135 128 118 106 98 98 98 101 98 100 98 98 98 95 92 86 79
179 214 220 213 186 173 150 193 154 6 188 201 196 259 73 143 155 166 172 182 185 187 189 178 175 176 174 172 165 153 146 138 132 133 132 145 132 126 119 84 102 102 100 99 98 97 95 90 79
214 227 219 208 187 193 175 206 168 197 195 213 222 206 161 170 177 182 187 186 191 189 182 185 183 180 179 165 172 165 156 158 155 149 155 142 135 120 111 94 85 89 95 96 97 97 98 93 93
169 243 171 205 206 207 185 204 188 221 222 222 216 207 182 185 192 197 199 196 193 189 183 195 190 187 183 173 177 173 166 167 164 160 149 135 125 131 127 133 126 121 124 110 105 98 81 89 91
213 190 199 119 181 167 193 140 200 230 235 321 250 58 182 193 199 203 203 199 193 190 192 182 194 195 189 180 187 171 169 174 175 174 159 146 140 141 137 134 129 127 115 113 100 91 94 91 90
220 168 199 249 210 231 163 219 249 250 243 231 246 210 207 209 210 210 208 203 197 197 187 188 191 193 179 188 193 169 178 175 178 175 171 159 151 140 135 133 132 106 116 116 115 111 105 98 92
100 216 263 244 217 228 236 233 203 240 273 237 229 233 226 220 214 204 207 204 202 198 191 184 194 190 181 189 187 171 174 176 167 173 174 178 156 148 146 136 122 125 120 111 122 124 116 104 98
93 255 262 226 214 218 205 234 230 248 233 251 239 243 239 231 219 215 211 209 201 198 188 190 187 182 185 183 177 175 163 166 168 172 179 168 159 149 151 142 137 121 113 106 109 122 120 111 103
215 236 248 130 178 109 222 266 250 174 236 252 250 243 240 235 220 223 218 211 202 194 191 183 177 183 177 168 156 145 138 120 122 171 167 162 152 147 146 134 136 137 123 116 135 140 131 119 112
209 255 224 300 192 141 222 282 174 194 249 269 261 248 242 241 223 223 213 211 196 197 192 188 186 178 163 145 145 135 118 111 99 68 119 152 152 146 145 134 140 144 135 139 147 134 142 127 116
205 216 217 249 148 206 222 259 263 247 262 267 267 258 252 243 232 220 211 208 204 195 194 193 188 181 162 143 133 119 105 88 114 110 87 124 142 151 147 133 143 151 139 129 142 143 133 131 125
132 210 255 241 185 221 245 261 271 276 266 263 260 258 253 249 243 223 207 203 199 199 194 193 187 184 175 155 159 169 157 149 117 133 124 126 128 148 147 143 146 163 156 147 145 141 139 138 132
232 252 258 280 272 230 275 263 269 265 255 253 259 258 255 263 241 205 209 201 199 196 198 195 195 186 190 185 166 144 145 134 135 144 144 139 157 160 152 150 158 147 147 142 156 152 147 140 169
227 234 242 260 319 225 285 268 235 266 257 255 255 255 267 268 260 230 212 206 202 201 198 198 194 190 191 185 156 123 95 94 140 158 148 158 162 167 160 151 155 155 161 164 166 170 171 159 186
245 211 220 243 266 273 318 286 267 266 267 250 253 245 253 253 248 255 224 210 205 206 197 198 193 192 190 179 181 177 172 171 180 168 158 165 159 168 154 153 161 166 172 181 172 171 191 170 174
235 142 181 185 230 305 223 267 238 228 249 255 257 239 217 201 247 234 221 215 205 196 193 195 192 190 182 182 183 183 181 163 155 156 160 163 157 143 146 146 137 161 178 176 178 164 187 185 177
140 101 80 92 221 256 243 228 274 205 229 247 270 186 149 333 332 217 151 172 187 187 196 194 192 187 180 178 183 187 176 170 165 168 166 158 149 160 146 140 155 168 160 160 171 157 181 187 176
201 165 206 225 202 258 89 215 252 294 220 243 229 181 252 158 86 226 172 173 184 184 192 191 191 187 187 188 191 189 184 183 182 170 171 171 168 172 167 153 154 161 163 144 145 151 146 164 156
191 197 208 240 227 280 128 236 249 235 272 233 230 251 252 254 234 215 178 175 182 185 193 191 191 188 186 183 189 183 173 169 179 186 179 173 178 177 157 141 142 138 146 142 134 137 135 138 133
178 217 253 271 102 280 250 257 250 232 240 236 235 238 233 191 176 167 163 176 181 188 195 196 194 192 187 181 179 178 173 174 182 167 159 150 153 135 116 121 113 134 143 141 139 137 134 134 128
216 146 172 213 228 242 251 264 249 229 233 226 221 206 169 153 176 155 171 180 188 188 195 198 198 199 185 183 183 180 179 179 170 162 158 152 140 136 136 131 123 128 137 133 138 129 137 133 125
168 200 220 232 223 250 277 265 195 238 187 188 169 171 177 191 190 182 188 187 191 193 192 197 198 197 188 187 184 177 174 171 162 167 163 155 146 148 146 144 137 139 139 136 135 135 140 134 132
253 216 195 200 198 241 297 266 124 202 181 166 183 184 187 200 192 183 186 184 191 198 196 197 201 202 199 193 186 183 171 167 161 165 160 154 151 151 146 145 144 146 156 148 145 143 154 150 145